Retour au catalogue

STARLINK-2487

ActifCommunicationsVLEO
NORAD 48144·PAYLOAD·🇺🇸 United States

Lancé Apr 7, 2021 depuis Cape Canaveral Space Force Station

Loading…

Prochains Passages (prochaines 24 heures)

TLE

FraisSource: CelesTrak SupGP

Époque: Sep 14, 2026, 19:54 UTC

1 48144C 21027BE  26257.82965278 -.00004975  00000+0 -15998-3 0  2570
2 48144  53.1600 352.2850 0001195  78.3501 118.7170 15.31708086    18

Suivez STARLINK-2487 en temps réel avec AllMySat

Download on the App Store